Voltar ao catálogo

CZ-6A DEB

AtivoPO
NORAD 55186·DEBRIS·🇨🇳 China

Lançado Nov 11, 2022 de Taiyuan Satellite Launch Center

Loading…

Próximas Passagens (próximas 24 horas)

TLE

AtualizadoSource: Space-Track

Época: Sep 14, 2026, 02:52 UTC

1 55186U 22151VB  26257.11992260  .00004681  00000-0  91419-3 0  9994
2 55186  98.6390 323.8916 0067348  16.3864 343.9492 14.61999358194586

Acompanhe CZ-6A DEB em tempo real com AllMySat

Download on the App Store